Aérodrome :
LOGIN :

S'inscrire | Disclaimer

   EN    FR    IT 

 










Légende :    VFR   VFR Marginal   IFR   IFR Intensif   IFR Très Intensif
Visi : 
Plafond : 
>= 8 km
>= 3000ft
5 à 8 km
1000 à 3000 ft
1500m à 5 km
500 à 1000 ft
800 à 1500m
200 à 500 ft
< 800m
< 200 ft
Symboles :   Orages  Brouillard  Fortes neiges  Fortes précipitations  Vent > 20 kt
SIGMETs :   Divers  Orages  Givrage  Turbulence  Onde Orograph.  Cendres Volcan.







- Altitude de l'aérodrome : 538 ft
- Code IATA : TNF
- Voir les cartes d'approche


LFPN - Toussus Le Noble

DERNIER METAR :
  • 210400Z AUTO 32003KT 5000 BR NSC 05/03 Q1033

METARs EXPIRÉS :
  • 210330Z AUTO 32002KT 6000 NSC 05/04 Q1033
  • 210300Z AUTO VRB01KT 6000 NSC 05/03 Q1033
  • 210230Z AUTO 35003KT 7000 NSC 05/03 Q1033
  • 210200Z AUTO 33003KT 8000 NSC 05/03 Q1034
  • 210130Z AUTO 33003KT 9000 NSC 05/03 Q1034

Prévision TAF périmée.
ATIS : +33 1 39 56 54 70
Pas de NOTAMs connus pour ce terrain.



MET'MAP, la Météo Aéronautique d'un coup d'oeil ! - Copyright ORBIFLY Décembre 2007 - Disclaimer

ORBIFLY MET'MAP TEAM :

Programmation & Développement : Alexandra Zaïnal
Conception & Développement : Baudouin d'Aumeries
Co-Programmation & Développement : Marc-Olivier Méhu
Soutien technique & logistique : Manuel Goepfert

Contact : metmap@orbifly.com




SOURCES & CREDITS :

   NOAA